Regional Weather Roundup
Issued by NWS New Orleans/Baton Rouge, LA

Home | Current Version | Previous Version | Graphics & Text | Print | Product List | Glossary On
Versions: 1 2 3 4 5 6 7 8 9 10 11 12 13 14 15 16 17 18 19 20 21 22 23 24 25 26 27 28 29 30 31 32 33 34 35 36 37 38 39 40 41 42 43 44 45 46 47 48 49 50
266
ASUS44 KLIX 231410
RWRLIX
NEW ORLEANS REGIONAL WEATHER ROUNDUP
NATIONAL WEATHER SERVICE NEW ORLEANS LA
900 AM CDT WED JUL 23 2014

NOTE: "FAIR" INDICATES FEW OR NO CLOUDS BELOW 12,000 FEET WITH NO
      SIGNIFICANT WEATHER AND/OR OBSTRUCTIONS TO VISIBILITY.
      SKY/WX - SKY CONDITION AND SIGNIFICANT WEATHER.
      TMP - AIR TEMPERATURE.     DP    - DEWPOINT TEMPERATURE.
      RH  - RELATIVE HUMIDITY.   PRES  - PRESSURE.
      HI  - HEAT INDEX.          WCI   - WIND CHILL INDEX.

*  THESE STATIONS ARE NOT NWS OR FAA STATIONS AND ARE NOT UNDER
   NWS QUALITY CONTROL.

LAZ038-040-048-061>063-065>067-069-231500-
SOUTHEAST LOUISIANA

CITY           SKY/WX    TMP DP  RH WIND       PRES   REMARKS
N.O. AUDUBON     N/A     84  76  76 MISG        N/A
N.O. INTL ARPT PTSUNNY   80  73  79 N10       30.05S THUNDER
N.O. LAKEFRONT RAIN      80  75  84 NE8       30.06R
N.O. DOWNTOWN* PTSUNNY   81  73  78 NW3       30.06R
SLIDELL        MOSUNNY   77  71  82 E3        30.07R
BATON ROUGE    SUNNY     78  70  76 NE5       30.06S
BOOTHVILLE     HVY RAIN  74  71  91 S21G29    30.06R FOG
BELLE CHASSE   TSTM      75  68  78 SE16      30.06R FOG
BOGALUSA*      CLOUDY    73  69  87 CALM      30.09S FOG
GALLIANO*      NOT AVBL
NEW ROADS*       N/A     76  70  81 CALM      30.07S
GONZALES*        N/A     78  74  88 NE3       30.05S
HAMMOND*       SUNNY     79  68  69 CALM      30.08S
HOUMA*         PTSUNNY   81  70  69 CALM      30.05S
PORT FOURCHON* MOSUNNY   82  72  69 VRB5      30.06S

$$

MSZ070-080>082-231500-
SOUTHERN MISSISSIPPI

CITY           SKY/WX    TMP DP  RH WIND       PRES   REMARKS
MCCOMB         SUNNY     75  69  81 NE3       30.08S
GULFPORT       PTSUNNY   79  71  76 N5        30.06S
BILOXI         PTSUNNY   77  73  87 NE3       30.06S
PASCAGOULA     MOSUNNY   80  74  81 CALM      30.07S
STENNIS ARPT*  PTSUNNY  N/A N/A N/A CALM      30.07R

$$

COASTAL OBSERVATIONS
LAKE AND NEARSHORE STATIONS

STATION/POSITION TIME  TEMP    WIND        PRES    WAVE
                       AIR SEA DIR/SP/G            HT/PER
                 (UTC) (F)     (DEG/KT/KT) (MB)    (FT/S)
PASCAGOULA       1400   81      20/  3/  4 1017.6
WAVELAND YACHT   1400   78     130/  4/  5 1017.3
GRAND ISLE       1400   80 85  310/  6/  7 1018.2
SOUTHWEST PASS   1400   79 84   60/  5/  6 1018.1
NEW CANAL        1400   79 81   50/  7/  9 1018.2
SHELL BEACH      1400   72 81  140/  6/ 12 1017.6

OFFSHORE STATIONS

STATION/POSITION TIME  TEMP    WIND        PRES    WAVE
                       AIR SEA DIR/SP/G            HT/PER
                 (UTC) (F)     (DEG/KT/KT) (MB)    (FT/S)
64 S DAUPHIN ISL 1349   81 84  200/  4/ 16 1018.2

$$




USA.gov is the U.S. government's official web portal to all federal, state and local government web resources and services.